VIASAT-3 F2

Last updated on Sun Jun 21 2026 00:03:10 GMT+0000 (Coordinated Universal Time)

1 66454U 25261A 26170.87735519 -.00000239 00000+0 00000+0 0 9995 2 66454 0.0363 174.4747 0000047 277.7870 52.7047 1.00270370 2829
UTC large
Height (km)
Speed (km/s)
/
Latitude / Longitude
Inclination (degrees)
Orbital Period (minutes)
Azimuth
Elevation
Range (km)
Doppler Factor

Next 0 passes for location: London (51.5072 / 0.1276)

No passes found over London.
VIASAT-3 F2